sat.trackr.live / text

‹ back to catalog

STARLINK-5385

NORAD 54821 · 2022-177B

PAYLOAD ACTIVE UNKNOWN

§ Identity

Operator
Country
US
Launch date
2022-12-28
Launch site
AFETR
Launch vehicle
Mass (kg)
RCS (m²)

Purposes: comms

External: N2YO · Heavens-Above · Gunter

§ Orbital elements

Epoch: 2026-09-19T22:46:59.895840Z

Period
94.27 min
Inclination
43.0030°
Eccentricity
0.0001352
Mean motion
15.27586255 rev/d
Perigee alt
482.1 km
Apogee alt
484.0 km
Semi-major
6,861.2 km
B*
-2.3123e-5
RAAN
118.9210°
Arg perigee
268.5119°
Mean anomaly
91.5578°
Rev number
20,663

§ Raw data

STARLINK-53851 54821U 22177B   26262.94930435 -.00000899  00000+0 -23123-4 0  99962 54821  43.0030 118.9210 0001352 268.5119  91.5578 15.27586255206635

JSON: /api/v1/satellites/54821 · /tle

For live sub-satellite position, see the globe view (requires WebGL).

§ Visibility from observer

Set your observer location to see the next 7 days of passes ≥ 10°. The values pass through the URL so the page stays shareable.

No JS? Fill the form by hand. The geolocation button needs JavaScript.